Flag for U.S.A. Weather past 2 weeks in Sacramento, California, U.S.A.

Now
60 °F

Clear.


Feels Like: 60 °F
Forecast: 58 / 89 °F
Wind: 6 mph from South

Location: Sacramento Executive Airport

Current Time: Aug 23, 2014 at 3:13:18 AM

Latest Report: Aug 23, 2014 at 2:53 AM


Visibility: 10 mi

Pressure: 29.87 "Hg

Humidity: 83%

Dew point: 55 °F

Location of SacramentoLocation

Historic Weather in Sacramento — Graph

°F

Sacramento temperature yesterday

Maximum temperature yesterday: 85 °F (at 4:53 PM)
Minimum temperature yesterday: 61 °F (at 11:53 PM)
Average temperature yesterday: 71 °F

Past Weeks' High & Low Weather Summary

 TemperatureHumidityPressure
High95 °F (Aug 11, 4:53 PM)90% (Aug 10, 3:53 AM)30.01 "Hg (Aug 10, 3:53 AM)
Low57 °F (Aug 10, 3:53 AM)13% (Aug 17, 4:53 PM)29.71 "Hg (Aug 18, 6:53 PM)
Average72 °F60%29.87 "Hg
* Reported Aug 8 1:53 AM — Aug 23 1:53 AM, Sacramento, Weather by CustomWeather, © 2014

Note: Actual official high and low records may vary slightly from our data, if they occured in-between our weather recording intervals... More about our weather records

Advertising

Sacramento weather history for previous 24 hours

 ConditionsComfort  
Time TempWeatherWind HumidityBarometerVisibility
1:53 AM
Aug 23
60 °FClear.5 mph83%29.87 "Hg10 mi
12:53 AM60 °FClear.5 mph83%29.87 "Hg10 mi
11:53 PM
Aug 22
61 °FClear.6 mph81%29.87 "Hg10 mi
10:53 PM63 °FClear.8 mph75%29.86 "Hg10 mi
9:53 PM65 °FClear.13 mph73%29.86 "Hg10 mi
8:53 PM69 °FClear.12 mph66%29.84 "Hg10 mi
7:53 PM73 °FSunny.9 mph59%29.82 "Hg10 mi
6:53 PM78 °FSunny.10 mph48%29.81 "Hg10 mi
5:53 PM82 °FSunny.10 mph43%29.81 "Hg10 mi
4:53 PM85 °FSunny.13 mph39%29.80 "Hg10 mi
3:53 PM84 °FSunny.10 mph38%29.81 "Hg10 mi
2:53 PM83 °FSunny.12 mph36%29.83 "Hg10 mi
1:53 PM82 °FSunny.10 mph41%29.85 "Hg10 mi
12:53 PM80 °FSunny.12 mph44%29.87 "Hg10 mi
11:53 AM77 °FSunny.8 mph48%29.88 "Hg10 mi
10:53 AM73 °FSunny.10 mph57%29.90 "Hg10 mi
9:53 AM71 °FSunny.8 mph63%29.89 "Hg10 mi
8:53 AM66 °FSunny.7 mph75%29.89 "Hg10 mi
7:53 AM64 °FSunny.8 mph81%29.89 "Hg10 mi
6:53 AM62 °FClear.8 mph86%29.89 "Hg10 mi
5:53 AM62 °FClear.7 mph86%29.87 "Hg10 mi
4:53 AM64 °FClear.8 mph78%29.86 "Hg10 mi
3:53 AM65 °FClear.6 mph76%29.87 "Hg10 mi
Weather by CustomWeather, © 2014

See weather overviewHow to use our weather pages